758  
ASUS42 KCAE 150210  
RWRCAE  
REGIONAL WEATHER ROUNDUP  
NATIONAL WEATHER SERVICE COLUMBIA SC  
1000 PM EDT WED APR 14 2021  
 
NOTE: "FAIR" INDICATES FEW OR NO CLOUDS BELOW 12,000 FEET WITH NO  
SIGNIFICANT WEATHER AND/OR S TO VISIBILITY
.  
 
NOT ALL STATIONS ARE QUALITY CONTROLLED BY THE NATIONAL  
WEATHER SERVICE. USE DATA WITH CAUTION...ESPECIALLY  
DEWPOINT OBSERVATIONS.  
 
SCZ001>059-115-116-135>137-GAZ040-063>065-077-150300-   
..UPSTATE SOUTH CAROLINA
 
 
 
CITY SKY/WX TMP DP RH WIND PRES REMARKS
 
ANDERSON LGT RAIN 68 56 65 W9 29.94R  
LIBERTY CLOUDY 67 54 62 W9G16 29.92S  
SPARTANBURG MOCLDY 72 46 40 W14G25 29.90R  
CLEMSON CLOUDY 65 55 70 W14 29.95R  
GREENVILLE CLOUDY 71 53 52 W15G23 29.92R  
GREENWOOD CLOUDY 70 54 56 W10G23 29.94R  
GREER CLOUDY 70 49 47 W14G24 29.92R  
ROCK HILL LGT RAIN 73 50 44 W7 29.88R  
CHESTER MOCLDY 72 46 40 SW3 29.89R  
LAURENS CLOUDY 72 52 49 W12G23 29.92R  
 
   
..CENTRAL SOUTH CAROLINA
 
 
 
CITY SKY/WX TMP DP RH WIND PRES REMARKS
 
COLUMBIA APT CLOUDY 78 45 30 SW12 29.89R  
COLUMBIA OWENS CLOUDY 79 48 33 SW7 29.89S  
MCENTIRE ANGB CLOUDY 74 58 56 S8 29.88R  
ORANGEBURG CLOUDY 72 57 59 S9 29.92R  
SUMTER SHAW CLOUDY 73 56 55 S13 29.89R  
AIKEN CLOUDY 76 44 31 W14 29.93S  
BARNWELL CLOUDY 77 48 36 SW6 29.91S  
MANNING CLOUDY 70 55 60 SW10 29.92S  
CAMDEN FAIR 75 59 57 VRB6G13 29.89R  
LANCASTER N/A 73 54 49 SW7 29.87R  
WINNSBORO CLOUDY 73 50 43 SW8 29.89R  
 
   
..EASTERN AND COASTAL SOUTH CAROLINA
 
 
 
CITY SKY/WX TMP DP RH WIND PRES REMARKS
 
MYRTLE BEACH MOCLDY 68 65 90 S13 29.94R  
N MYRTLE BCH MOCLDY 67 64 90 SW18 29.93R  
CONWAY FAIR 70 61 73 S8G16 29.93R  
MARION CLOUDY 70 54 56 S12 29.92R  
HARTSVILLE CLOUDY 72 55 56 S9 29.88F  
FLORENCE CLOUDY 73 51 46 S12 29.89S  
DARLINGTON MOCLDY 72 56 57 S14 29.88S  
CHARLESTON APT CLOUDY 70 61 73 SW17G28 29.95S  
MOUNT PLEASANT FAIR 70 68 94 S12G22 29.95S  
WALTERBORO CLOUDY 70 57 64 S9G16 29.94F  
BEAUFORT CLOUDY 72 61 68 S10G17 29.96R  
HILTON HEAD MOCLDY 70 64 83 SW13G20 29.98R  
 
   
..EASTERN GEORGIA
 
 
 
CITY SKY/WX TMP DP RH WIND PRES REMARKS
 
AUGUSTA BUSH F CLOUDY 78 44 29 W7 29.91R  
AUGUSTA DANIEL CLOUDY 78 45 30 VRB5 29.92S  
THOMSON CLOUDY 73 53 49 W7 29.95R  
WASHINGTON FAIR 68 55 64 W10 29.96R  
CLAXTON FAIR 75 61 61 CALM 29.96R  
SYLVANIA MOCLDY 76 59 56 S3 29.94S  
STATESBORO CLOUDY 75 58 55 S6 29.94S  
SAVANNAH MOCLDY 71 58 63 S12 29.96S  
 
   
..SOUTHERN NORTH CAROLINA
 
 
 
CITY SKY/WX TMP DP RH WIND PRES REMARKS
 
CHARLOTTE LGT RAIN 74 50 42 W5 29.87R  
MONROE LGT RAIN 73 54 51 SW10 29.86R  
WADESBORO LGT RAIN 74 56 51 S3 29.85R  
ROCKINGHAM MOCLDY 74 56 53 S9G16 29.86S  
RUTHERFORDTON CLOUDY 70 43 37 W10 29.89S  
ASHEVILLE CLOUDY 62 50 64 N9 29.95R  
 

 
 
 
CLICK HERE TO GO TO PREVIOUS BULLETINS.

The Nexlab SC Page
The Nexlab GA Page Main Text Page